Regional Weather Roundup
Issued by NWS

Home | Current Version | Previous Version | Text Only | Print | Product List | Glossary Off
Versions: 1 2 3 4 5 6 7 8 9 10 11 12 13 14 15 16 17 18 19 20 21 22 23 24 25 26 27 28 29 30 31 32 33 34 35 36 37 38 39 40 41 42 43 44 45 46 47 48 49 50

586
ASUS43 KMKX 211211
RWRWI

WISCONSIN REGIONAL WEATHER ROUNDUP
NATIONAL WEATHER SERVICE MILWAUKEE/SULLIVAN WI
600 AM CST TUE NOV 21 2017

NOTE: "FAIR" INDICATES FEW OR NO CLOUDS BELOW 12,000 FEET WITH NO
SIGNIFICANT WEATHER AND/OR OBSTRUCTIONS TO VISIBILITY.

WIZ001-002-006>008-014>016-023>028-211300-
NORTHWEST WISCONSIN

CITY           SKY/WX    TMP DP  RH WIND       PRES   REMARKS
SUPERIOR ARPT  CLOUDY    25  10  54 W18G35    29.69R WCI  11
6HR MIN TEMP:  25; 6HR MAX TEMP:  39;

ASHLAND        CLOUDY    27  15  61 W15G25    29.61R WCI  15
6HR MIN TEMP:  27; 6HR MAX TEMP:  39; 6HR PCP: TRACE;

HAYWARD        MIX PCPN  26  12  55 W14G24    29.63R WCI  14
6HR MIN TEMP:  26; 6HR MAX TEMP:  40; 6HR PCP: TRACE;

SIREN          CLOUDY    26  13  56 NW21G30   29.71R WCI  12
6HR MIN TEMP:  26; 6HR MAX TEMP:  39;

CUMBERLAND     CLOUDY    27  14  59 W17G35    29.67R WCI  14
RICE LAKE      CLOUDY    27  15  59 W17G24    29.69R WCI  14
6HR MIN TEMP:  27; 6HR MAX TEMP:  40;

CHETEK         CLOUDY    27  14  59 W13G28    29.67R WCI  16
6HR MIN TEMP:  27; 6HR MAX TEMP:  41;

LADYSMITH      CLOUDY    30  17  59 NW24G35   29.62R WCI  16
6HR MIN TEMP:  30; 6HR MAX TEMP:  39;

EAU CLAIRE     PTCLDY    27  13  55 NW23G30   29.69R WCI  12
6HR MIN TEMP:  27; 6HR MAX TEMP:  39;

MENOMONIE      CLOUDY    27  13  56 W20G32    29.71R WCI  13
6HR MIN TEMP:  27; 6HR MAX TEMP:  42;

NEW RICHMOND   CLOUDY    26  13  57 NW16G30   29.74R WCI  13
6HR MIN TEMP:  25; 6HR MAX TEMP:  40;

OSCEOLA        CLOUDY    27  14  59 W22G35    29.77R WCI  12
6HR MIN TEMP:  26; 6HR MAX TEMP:  40;

$$

WIZ003>005-009-010-017-018-211300-
NORTH CENTRAL WISCONSIN

CITY           SKY/WX    TMP DP  RH WIND       PRES   REMARKS
MANITOWISH WTR FLURRIES  26  16  66 NW15G31   29.52R WCI  14
6HR MIN TEMP:  26; 6HR MAX TEMP:  37;

ARBOR VITAE    CLEAR     29  18  63 NW12G24   29.51R WCI  20
6HR MIN TEMP:  29; 6HR MAX TEMP:  39;

WOODRUFF       CLEAR     29  18  63 NW12G24   29.51R WCI  20
6HR MIN TEMP:  29; 6HR MAX TEMP:  39;

RHINELANDER    PTCLDY    30  18  60 W15G26    29.50R WCI  19
6HR MIN TEMP:  30; 6HR MAX TEMP:  39;

EAGLE RIVER    CLOUDY    29  17  59 W20G29    29.48R WCI  16
6HR MIN TEMP:  29; 6HR MAX TEMP:  37;

LAND O LAKES   CLOUDY    30  20  66 W12G23    29.48R WCI  20
6HR MIN TEMP:  30; 6HR MAX TEMP:  39;

PHILLIPS       CLOUDY    29  18  62 NW7G16    29.54R WCI  22
6HR MIN TEMP:  29; 6HR MAX TEMP:  37;

TOMAHAWK       CLOUDY    30  18  60 W16G25    29.53R WCI  19
6HR MIN TEMP:  30; 6HR MAX TEMP:  39;

MEDFORD        CLOUDY    31  21  66 W15G23    29.55R WCI  20
6HR MIN TEMP:  31; 6HR MAX TEMP:  38;

MERRILL        CLEAR     32  19  58 W15G24    29.53R WCI  22
6HR MIN TEMP:  32; 6HR MAX TEMP:  40;

$$

WIZ029-030-035-036-043>047-211300-
CENTRAL WISCONSIN

CITY           SKY/WX    TMP DP  RH WIND       PRES   REMARKS
WAUSAU         CLOUDY    34  22  61 W23G29    29.52R WCI  22
6HR MIN TEMP:  33; 6HR MAX TEMP:  41;

MOSINEE        MOCLDY    34  25  69 W15G24    29.55R WCI  24
MARSHFIELD     PTCLDY    33  20  58 W18G30    29.56R WCI  22
6HR MIN TEMP:  33; 6HR MAX TEMP:  41;

STEVENS POINT  CLEAR     33  21  60 W10G18    29.55R WCI  25
6HR MIN TEMP:  33; 6HR MAX TEMP:  43;

WAUPACA        PTCLDY    40  21  46 W10       29.54R WCI  33
6HR MIN TEMP:  40; 6HR MAX TEMP:  48;

WAUTOMA        PTCLDY    39  20  46 W15G24    29.56R WCI  31
6HR MIN TEMP:  39; 6HR MAX TEMP:  47;

WISC RAPIDS    CLEAR     36  17  46 NW15G30   29.58R WCI  27
6HR MIN TEMP:  36; 6HR MAX TEMP:  45;

CAMP DOUGLAS   CLEAR     39   7  26 W20G25    29.61R WCI  30
$$

WIZ011>013-019>022-031-037>040-048>050-211300-
NORTHEAST WISCONSIN

CITY           SKY/WX    TMP DP  RH WIND       PRES   REMARKS
ANTIGO         PTCLDY    31  20  63 W18       29.49R WCI  20
6HR MIN TEMP:  31; 6HR MAX TEMP:  38;

SHAWANO        CLEAR     39  22  50 W12G17    29.50R WCI  32
6HR MIN TEMP:  39; 6HR MAX TEMP:  48;

OCONTO         CLEAR     38  24  55 W10G16    29.48R WCI  32
6HR MIN TEMP:  38; 6HR MAX TEMP:  46;

STURGEON BAY   CLEAR     41  25  53 W16       29.47R
6HR MIN TEMP:  41; 6HR MAX TEMP:  47;

GREEN BAY      CLEAR     40  27  59 W16       29.50R WCI  31
6HR MIN TEMP:  40; 6HR MAX TEMP:  44;

MANITOWOC      CLOUDY    44  28  53 W15       29.51R
6HR MIN TEMP:  44; 6HR MAX TEMP:  50;

APPLETON       CLEAR     39  19  45 W16G28    29.50R WCI  30
CLINTONVILLE   CLEAR     39  21  48 W21G32    29.50R WCI  29
OSHKOSH        PTCLDY    41  26  55 W9G21     29.53R
6HR MIN TEMP:  41; 6HR MAX TEMP:  45;

$$

WIZ032>034-041-042-053>061-211300-
SOUTHWEST WISCONSIN

CITY           SKY/WX    TMP DP  RH WIND       PRES   REMARKS
LA CROSSE      CLEAR     36  16  44 NW22G32   29.68R WCI  25
6HR MIN TEMP:  36; 6HR MAX TEMP:  46;

SPARTA         PTCLDY    35  15  42 W12G24    29.65R WCI  27
6HR MIN TEMP:  35; 6HR MAX TEMP:  44;

VIROQUA        CLEAR     35  13  40 W9G24     29.64R WCI  28
6HR MIN TEMP:  35; 6HR MAX TEMP:  42;

BOSCOBEL       CLOUDY    42  16  34 W15G22    29.67R
6HR MIN TEMP:  41; 6HR MAX TEMP:  49;

PRAIRIE DU CHI CLOUDY    39  11  31 W16G24    29.71R WCI  31
6HR MIN TEMP:  39; 6HR MAX TEMP:  48;

PLATTEVILLE    CLOUDY    40  28  60 W17G29    29.67R WCI  32
6HR MIN TEMP:  38; 6HR MAX TEMP:  44;

$$

WIZ056-057-062-063-064-067-068-211300-
SOUTH CENTRAL WISCONSIN

CITY           SKY/WX    TMP DP  RH WIND       PRES   REMARKS
REEDSBURG      CLOUDY    40  18  41 W18G25    29.60R WCI  31
6HR MIN TEMP:  40; 6HR MAX TEMP:  46;

BARABOO/DELLS  CLOUDY    40  20  44 W10G22    29.59R WCI  34
6HR MIN TEMP:  40; 6HR MAX TEMP:  46;

LONE ROCK      CLOUDY    42  20  41 W18G26    29.64R
6HR MIN TEMP:  38; 6HR MAX TEMP:  47;

MINERAL POINT  CLOUDY    41  28  60 W16G26    29.63R
MADISON        CLOUDY    43  27  53 W7        29.58S
6HR MIN TEMP:  42; 6HR MAX TEMP:  47;

MIDDLETON      CLOUDY    44  27  50 W17G23    29.59R
6HR MIN TEMP:  43; 6HR MAX TEMP:  48;

WATERTOWN      CLOUDY    42  32  68 SW8       29.57F
6HR MIN TEMP:  40; 6HR MAX TEMP:  45;

MONROE         MOCLDY    41  28  60 W15       29.62R
JANESVILLE     MOCLDY    41  32  70 SW8       29.61F
$$

WIZ051-052-058>065-066-070>072-211300-
SOUTHEAST WISCONSIN

CITY           SKY/WX    TMP DP  RH WIND       PRES   REMARKS
MILWAUKEE      MOCLDY    41  32  70 SW14      29.59R
6HR MIN TEMP:  41; 6HR MAX TEMP:  46;

WAUKESHA       CLEAR     41  30  65 SW12      29.58S
MILWAUKEE/TIMM PTCLDY    41  30  65 SW9       29.58R
RACINE         MOCLDY    42  32  67 SW12G22   29.61S
6HR MIN TEMP:  42; 6HR MAX TEMP:  47;

BURLINGTON     CLEAR     42  37  79 SW13      29.61R
6HR MIN TEMP:  40; 6HR MAX TEMP:  45;

KENOSHA        PTCLDY    42  31  64 SW14      29.61S
6HR MIN TEMP:  42; 6HR MAX TEMP:  47;

FOND DU LAC    CLOUDY    43  27  53 W8        29.54R
6HR MIN TEMP:  41; 6HR MAX TEMP:  46;

SHEBOYGAN      PTCLDY    44  29  55 W12       29.53R
6HR MIN TEMP:  42; 6HR MAX TEMP:  49;

WEST BEND      CLOUDY    43  30  61 W13       29.55R
JUNEAU         CLOUDY    41  30  66 SW16      29.57R
6HR MIN TEMP:  40; 6HR MAX TEMP:  44;

$$

LSZ147-162-211300-
LAKE SUPERIOR

STATION/POSITION TIME  TEMP    WIND        PRES    WAVE
                       AIR SEA DIR/SP/G            HT/PER
                 (UTC) (F)     (DEG/KT/KT) (MB)    (FT/S)
DEVILS ISLAND    1200   27     280/ 28/ 34 1002.8R
SAXON HARBOR     1140   30     280/ 17/ 26 1001.4R
$$

LMZ867-665-643>646-211300-
LAKE MICHIGAN

STATION/POSITION TIME  TEMP    WIND        PRES    WAVE
                       AIR SEA DIR/SP/G            HT/PER
                 (UTC) (F)     (DEG/KT/KT) (MB)    (FT/S)
N MID LAKE BUOY  1150



USA.gov is the U.S. government's official web portal to all federal, state and local government web resources and services.